Location: Unspecified
(0.0000°N, 0.0000°E)
Time: 01:10:20
(UTC+00:00)

Altair - All Passes

Search period start: 05 September 2015 00:00
Search period end: 15 September 2015 00:00
Orbit: 1502 x 1682 km, 47.2° (Epoch: 03 September)

Date Brightness Start Highest point End Pass type
(mag) Time Alt. Az. Time Alt. Az. Time Alt. Az.
05 Sep - 08:26:16 10° S 08:32:37 19° SE 08:39:33 10° E daylight
05 Sep - 10:27:45 10° SW 10:37:58 89° NW 10:48:01 10° NE daylight
05 Sep - 12:36:41 10° W 12:43:16 18° NW 12:49:08 10° N daylight
05 Sep - 21:14:30 10° NNW 21:22:45 39° NE 21:31:11 10° ESE visible
05 Sep - 23:18:47 10° WNW 23:27:21 43° SW 23:35:57 10° SSE night (unlit)
06 Sep - 08:01:44 10° S 08:07:17 17° SE 08:13:33 10° E daylight
06 Sep - 10:02:35 10° SW 10:12:47 83° SE 10:22:52 10° NE daylight
06 Sep - 12:10:44 10° W 12:17:58 21° NW 12:24:34 10° N daylight
06 Sep - 20:49:38 10° NNW 20:57:35 34° NE 21:05:45 10° ESE visible
06 Sep - 22:53:27 10° WNW 23:02:11 48° SW 23:11:00 10° SSE night (unlit)
07 Sep - 07:37:23 10° SSE 07:41:57 14° SE 07:47:20 10° ESE daylight
07 Sep - 09:37:27 10° SW 09:47:36 76° SE 09:57:40 10° NE daylight
07 Sep - 11:44:54 10° W 11:52:42 24° NW 11:59:55 10° N daylight
07 Sep - 20:24:48 10° N 20:32:24 30° NE 20:40:15 10° ESE visible
07 Sep - 22:28:10 10° NW 22:37:03 54° SW 22:46:01 10° SSE visible
08 Sep - 07:13:19 10° SSE 07:16:36 12° SE 07:20:47 10° ESE daylight
08 Sep - 09:12:21 10° SSW 09:22:24 68° SE 09:32:26 10° NE daylight
08 Sep - 11:19:11 10° WSW 11:27:26 27° NW 11:35:11 10° N daylight
08 Sep - 20:00:01 10° N 20:07:12 27° NE 20:14:42 10° ESE visible
08 Sep - 22:02:54 10° NW 22:11:54 61° SW 22:21:00 10° SSE visible
09 Sep - 06:50:13 10° SE 06:51:14 10° SE 06:53:15 10° SE daylight
09 Sep - 08:47:16 10° SSW 08:57:14 61° SE 09:07:10 10° NE daylight
09 Sep - 10:53:32 10° WSW 11:02:11 30° NW 11:10:24 10° N daylight
09 Sep - 19:35:17 10° N 19:42:00 24° NE 19:49:04 10° E visible
09 Sep - 21:37:41 10° NW 21:46:46 68° SW 21:55:57 10° SSE visible
09 Sep - 23:49:38 10° WSW 23:52:20 11° SW 23:54:12 10° SSW night (unlit)
10 Sep - 08:22:14 10° SSW 08:32:01 55° SE 08:41:51 10° NE daylight
10 Sep - 10:27:57 10° WSW 10:36:56 34° NW 10:45:33 10° NNE daylight
10 Sep - 19:10:37 10° N 19:16:46 21° NE 19:23:21 10° E visible
10 Sep - 21:12:29 10° NW 21:21:39 76° SW 21:30:53 10° SE visible
10 Sep - 23:22:49 10° WSW 23:27:01 13° SW 23:30:31 10° SSW night (unlit)
11 Sep - 07:57:13 10° SSW 08:06:49 49° SE 08:16:31 10° ENE daylight
11 Sep - 10:02:27 10° WSW 10:11:42 38° NW 10:20:40 10° NNE daylight
11 Sep - 18:46:02 10° N 18:51:32 18° NE 18:57:32 10° E visible
11 Sep - 20:47:20 10° NW 20:56:33 85° SW 21:05:47 10° SE visible
11 Sep - 22:56:34 10° WSW 23:01:44 15° SW 23:06:18 10° SSW night (unlit)
12 Sep - 07:32:15 10° SSW 07:41:36 44° SE 07:51:07 10° ENE daylight
12 Sep - 09:37:00 10° WSW 09:46:29 43° NW 09:55:44 10° NNE daylight
12 Sep - 18:21:35 10° NNE 18:26:16 16° NE 18:31:32 10° E visible
12 Sep - 20:22:12 10° NW 20:31:25 86° NE 20:40:39 10° SE visible
12 Sep - 22:30:34 10° W 22:36:27 18° SW 22:41:52 10° S visible
13 Sep - 07:07:19 10° SSW 07:16:22 39° SE 07:25:40 10° ENE daylight
13 Sep - 09:11:35 10° WSW 09:21:16 48° NW 09:30:47 10° NNE daylight
13 Sep - 17:57:20 10° NNE 18:00:58 13° NE 18:05:20 10° ENE daylight
13 Sep - 19:57:06 10° NW 20:06:18 78° NE 20:15:30 10° SE visible
13 Sep - 22:04:43 10° W 22:11:13 20° SW 22:17:18 10° S visible
14 Sep - 06:42:26 10° SSW 06:51:08 35° SE 07:00:10 10° ENE daylight
14 Sep - 08:46:14 10° SW 08:56:03 54° NW 09:05:47 10° NNE daylight
14 Sep - 17:33:31 10° NNE 17:35:40 11° NE 17:38:39 10° ENE daylight
14 Sep - 19:32:01 10° NNW 19:41:11 70° NE 19:50:18 10° SE visible
14 Sep - 21:38:59 10° W 21:46:00 23° SW 21:52:39 10° S visible
